Rbgn^[z[y[W
メイン
   新天体発見情報
     Comet C/2017 M3 (PANSTARRS)
投稿するにはまず登録を

スレッド表示 | 新しいものから 前のトピック | 次のトピック | 下へ
投稿者 スレッド
佐藤裕久
投稿日時: 2017-6-26 21:43
モデレータ
登録日: 2005-6-12
居住地: 日本
投稿: 1822
オンライン
Comet C/2017 M3 (PANSTARRS)

6月20.3日UT、Haleakalaにある1.8-m Pan-STARRS1望遠鏡で得たCCD露出から別の彗星が発見された。
R. J. Wainscoatの書き込みによると、L. Wellsと彼は、6月21.3日UT、Mauna Keaにある3.6-m Canada-
France-Hawaii Telescopeを使用した3枚の40秒w-バンド露出では、北東に伸びる約3"の短い尾が見え、
0".7のシーイングでコマのFWHMは 1".1 であった(測定はM. MicheliとWainscoat)。

発見位置は次のとおり、

     2017 UT             R.A. (2000) Decl.       Mag.
     June 20.29425   12 10 29.71   +62 48 03.1   21.1
          20.30800   12 10 29.57   +62 47 48.0   21.3
          20.32177   12 10 29.47   +62 47 32.9   21.2
          20.33554   12 10 29.34   +62 47 17.5   21.3

暫定放物線軌道要素と位置推算表は次のとおり、

Orbital elements:
    C/2017 M3 (PANSTARRS)
T 2017 May 31.98892 TT                                  MPCW
q   4.6840194            (2000.0)            P               Q
                   Peri.  114.86593     -0.44270567     -0.88784970
                   Node     7.38849     -0.21980684     -0.02816818
e   1.0            Incl.   77.27472     +0.86930814     -0.45927058
From 17 observations 2017 June 20-23.

Ephemeris:
    C/2017 M3 (PANSTARRS)
Date    TT    R. A. (2000) Decl.     Delta      r     Elong.  Phase   m1
2017 05 24    12 29 52.6 +70 57 15   4.7300  4.6845    81.3    12.3  20.1
...
2017 06 08    12 14 46.0 +66 32 38   4.8281  4.6843    75.8    12.1  20.1
...
2017 06 16    12 11 22.1 +64 06 41   4.8859  4.6855    72.7    11.9  20.2
...
2017 06 22    12 10 18.6 +62 16 51   4.9311  4.6870    70.3    11.8  20.2
2017 06 23    12 10 14.2 +61 58 34   4.9387  4.6873    69.9    11.7  20.2
2017 06 24    12 10 11.5 +61 40 19   4.9464  4.6876    69.5    11.7  20.2
...
2017 06 30    12 10 26.6 +59 51 16   4.9929  4.6897    67.0    11.5  20.2
...
2017 07 08    12 11 57.2 +57 27 54   5.0555  4.6932    63.6    11.2  20.2
...
2017 07 23    12 17 25.6 +53 08 17   5.1715  4.7022    57.4    10.5  20.3

(CBET 4407、MPEC 2017-M44)

スレッド表示 | 新しいものから 前のトピック | 次のトピック | トップ

投稿するにはまず登録を
 
© 1999-2013 Tsutomu Seki.